Погода в Бхимдатте

Непал     28°58′25″N   80°10′33″E
темп.,
°C
ветер,
м/с
пор.,
м/с
влажн.,
%
обл.,
%
осадки,
мм/ч
давл.,
гПа
погр.,
м
20 апреля, вт
вт2023:45+24ссв43170 0.0 100541
02:45+23ссв56183 0.0 100479
05:45+20ссв452115 0.0 100570
08:45+31ссв341121 0.0 1006390
11:45+38юз34514 0.0 10053080
14:45+39зюз565100 0.0 10024442
17:45+35з5610100 0.0 1003429
20:45+30св3414100 0.0 100450
21 апреля, ср
ср2123:45+28ссв4416100 0.0 100455
02:45+27ссз6916100 0.0 1004200
05:45+25ссв5721100 0.0 1008124
08:45+30св4621100 0.0 1009794
11:45+35вюв231624 0.0 10093432
14:45+36ююв891495 0.0 10054212
17:45+34юв571520 0.0 10042572
20:45+24ссв564174 0.3 1010190
22 апреля, чт
чт2223:45+20с5757100 0.6 1011141
02:45+20ссв586062 0.1 1010162
05:45+19ссв5758100 0.1 1010151
08:45+28ссв442815 0.0 1011484
11:45+35зюз35134 0.0 10094439
14:45+36зюз66107 0.0 10064353
17:45+34зсз35120 0.0 10053570
20:45+24ссв56310 0.0 100891
23 апреля, пт
пт2323:45+21ссв57420 0.0 1009133
02:45+20ссв57420 0.0 1008118
05:45+20ссв57410 0.0 1009107
08:45+30с44200 0.0 1009428
11:45+36з23100 0.0 10073372
14:45+38зюз5684 0.0 10044489
17:45+36з6898 0.0 10033211
20:45+27ссв71125100 0.0 1007313
24 апреля, сб
сб2423:45+24с573863 0.1 1009145
02:45+24ссв573599 0.0 1007124
05:45+21ссв68387 0.1 1007126
08:45+31ссв45183 0.0 1008517
11:45+38зюз48105 0.0 10074555
14:45+39з87920 0.0 10044527
17:45+37з6680 0.0 10033302
20:45+26ссв56274 0.0 100675